[[{"header":{"parameterUnit":"m.s-1","parameterCategory":1,"la1":30.2991,"la2":30.254,"lo1":-89.0895,"lo2":-89.0444,"dy":0.0017,"dx":0.0017,"nx":28,"ny":28,"refTime":"2025-07-21T09:00:00:Z","depth":0,"parameterNumber":2,"parameterNumberName":"U-component_of_WINDS"},"data":[0,0,0,0,0,0,0,0,0,0,0,0,0,0,0,0,0,0,0,0,0,0,0,0,0,0,0,0,0,0,0,0,0,0,0,0,0,0,0,0,0,0,0,0,0,0,0,0,0,0,0,0,0,0,0,0,0,0,3.9404,3.9405,0,3.9559,3.9561,3.9563,3.9509,3.9505,3.9502,3.9498,3.966,3.9667,3.9675,0,0,0,0,0,0,0,0,0,0,0,0,0,3.9061,3.9068,3.9404,3.9406,3.9408,3.9559,3.9561,3.9563,3.9509,3.9505,3.9501,3.9497,3.9657,3.9666,3.9675,0,0,0,0,0,0,0,0,0,0,0,0,0,3.9213,3.907,3.9403,3.9399,3.94,3.9558,3.9561,3.9564,3.951,3.9505,3.95,3.9495,3.9655,3.9665,3.9677,3.985,0,0,3.9711,3.9716,0,0,0,0,0,0,0,0,3.9204,3.9225,3.9398,3.9399,3.9401,3.9509,3.9499,3.966,3.9511,3.9468,3.9498,3.9492,3.9614,3.9628,3.9669,3.9857,3.9864,3.9712,3.9719,3.9724,3.9727,0,0,0,0,0,0,0,3.9194,3.9218,3.9465,3.94,3.9402,3.9389,3.9405,3.9529,3.9568,3.9472,3.9468,3.9487,3.9614,3.9658,3.9672,3.9866,3.9712,3.9722,3.9729,3.9733,4.0201,4.0207,0,0,0,0,0,0,3.9182,3.921,3.946,3.947,3.9288,3.94,3.9417,3.948,3.9567,3.9575,3.9491,3.9484,3.9641,3.9659,3.9678,3.9883,3.9724,3.9734,3.9741,4.0196,4.0203,4.0209,0,0,0,0,0,0,3.9175,3.9205,3.9454,3.9339,3.937,3.9411,3.9481,3.9485,3.9529,3.9582,3.9588,3.9529,3.9638,3.9662,3.9806,3.9888,3.9739,3.975,4.0189,4.0198,4.0206,4.0298,0,0,0,0,0,0,3.9165,3.9203,3.9269,3.9341,3.9376,3.958,3.9487,3.9492,3.9549,3.9541,3.9619,3.9627,3.9636,3.979,3.9818,3.9901,3.9758,4.0182,4.0193,4.0203,4.0287,4.0308,4.0326,0,0,0,0,0,3.9153,3.929,3.9272,3.9303,3.9459,3.9585,3.9605,3.9612,3.9556,3.9622,3.9655,3.9625,3.9875,3.9805,3.9836,3.9924,4.0177,4.019,4.0202,4.0279,4.0304,4.0326,0,0,0,0,0,0,3.9227,3.9299,3.9281,3.9444,3.9509,3.9575,3.9659,3.9639,3.9721,3.971,3.9716,3.9734,3.9882,3.9918,3.9838,4.0095,4.0018,4.0037,4.0065,4.009,4.0109,4.0096,3.9768,0,0,0,0,0,3.9262,3.9358,3.9416,3.9555,3.9588,3.9618,3.9673,3.9673,3.974,3.9767,3.9811,3.9878,3.9971,4.0033,4.0122,4.0293,4.0308,4.0369,4.0388,4.0404,4.042,4.051,4.0537,4.0251,4.0251,4.025,0,0,3.9337,3.9388,3.9448,3.9571,3.9621,3.9719,3.9642,3.975,3.9822,3.9784,3.9922,3.9957,4.0032,4.0189,4.0261,4.0223,4.0502,4.042,4.0432,4.044,4.0526,4.0553,4.0577,4.0259,4.0258,4.0256,0,0,3.9521,3.957,3.969,3.9741,3.9816,3.9836,3.9864,3.9934,3.9955,4.0094,4.0066,4.0153,4.0315,4.0368,4.0417,4.062,4.0594,4.0649,4.0749,4.0837,4.086,4.0879,4.0949,4.0974,4.0666,4.0666,4.0666,0,3.9603,3.975,3.9754,3.9864,3.9918,3.9886,4.0006,4.0056,4.0158,4.0196,4.0153,4.0353,4.0402,4.057,4.0619,4.0661,4.0693,4.0639,4.0856,4.0876,4.0895,4.0961,4.0988,4.0672,4.0671,4.0671,4.067,0,3.9846,3.9948,4.0036,4.0132,4.0197,4.0312,4.0333,4.0398,4.0392,4.0415,4.0555,4.0612,4.0711,4.0752,4.0748,4.0919,4.0893,4.0854,4.0776,4.0928,4.099,4.1016,4.0681,4.0678,4.0677,4.0675,0,0,4.0081,4.0177,4.0209,4.0251,4.0332,4.0411,4.0524,4.062,4.0674,4.0745,4.0839,4.0976,4.0938,4.0994,4.0995,4.1073,4.1226,4.1023,4.1025,4.1056,4.1415,4.1443,4.1472,4.121,4.1215,4.1219,4.1408,0,4.027,4.0466,4.0473,4.0652,4.0745,4.0716,4.0814,4.0875,4.09,4.0982,4.101,4.1106,4.1051,4.1084,4.1159,4.1192,4.1298,4.1179,4.1296,4.13,4.1275,4.1505,4.1535,4.171,4.1433,4.1437,4.144,0,4.0516,4.0592,4.0781,4.0846,4.0885,4.0973,4.1059,4.114,4.1207,4.1219,4.128,4.127,4.1384,4.1305,4.1462,4.138,4.1429,4.1452,4.1459,4.1468,4.1377,4.1518,4.1767,4.1792,4.1479,4.1476,4.1473,0,4.0664,4.0815,4.0947,4.0984,4.1064,4.1126,4.1163,4.1225,4.1281,4.1357,4.1393,4.1483,4.1531,4.16,4.1614,4.1555,4.1771,4.1693,4.1783,4.1783,4.1828,4.1824,4.2085,4.1864,4.1864,4.1863,4.1863,0,4.0873,4.0988,4.1014,4.1095,4.1223,4.1229,4.1356,4.1388,4.1443,4.1529,4.1511,4.1592,4.1607,4.1691,4.1703,4.183,4.1853,4.1865,4.1866,4.1865,4.1863,4.1895,4.1882,4.187,4.1869,4.1867,4.1866,0,4.1059,4.1082,4.1222,4.1286,4.1304,4.1396,4.145,4.1527,4.155,4.1659,4.1685,4.172,4.1818,4.1839,4.1957,4.1965,4.2114,4.2105,4.2091,4.2089,4.2177,4.2167,4.2465,4.2503,4.226,4.2263,4.2264,0,4.119,4.1277,4.135,4.1405,4.1444,4.1535,4.1591,4.1601,4.166,4.1742,4.1809,4.1905,4.1981,4.2139,4.2176,4.2265,4.2256,4.2354,4.2269,4.2264,4.2254,4.2247,4.2254,4.237,4.2372,4.2374,4.2376,0,4.1417,4.1423,4.1505,4.159,4.1658,4.1726,4.1791,4.1838,4.1856,4.1924,4.2023,4.2082,4.22,4.2295,4.2384,4.2421,4.2401,4.2403,4.2428,4.2426,4.2413,4.2418,4.2132,4.2395,4.2394,4.2392,4.2391,4.239,4.1578,4.1653,4.1715,4.1806,4.1856,4.1916,4.199,4.2021,4.2104,4.22,4.2201,4.2309,4.2372,4.2488,4.2531,4.2615,4.2585,4.2622,4.2631,4.2639,4.2645,4.2402,4.2632,4.2632,4.2631,4.2631,4.263,0,4.1801,4.1839,4.1923,4.2013,4.2085,4.206,4.2129,4.2191,4.2285,4.2345,4.2421,4.2533,4.2625,4.2668,4.2758,4.2817,4.281,4.284,4.2834,4.2842,4.2669,4.2637,4.2843,4.2843,4.2843,4.2843,4.2843,4.2843,4.1926,4.2052,4.2065,4.2214,4.2252,4.2356,4.2397,4.2453,4.25,4.2626,4.2701,4.2729,4.2782,4.2875,4.2957,4.2968,4.3,4.3034,4.304,4.2877,4.2855,4.2834,4.2804,4.3042,4.3042,4.3206,4.3207,4.3208]},{"header":{"parameterUnit":"m.s-1","parameterCategory":1,"la1":30.2991,"la2":30.254,"lo1":-89.0895,"lo2":-89.0444,"dy":0.0017,"dx":0.0017,"nx":28,"ny":28,"refTime":"2025-07-21T09:00:00:Z","depth":0,"parameterNumber":3,"parameterNumberName":"V-component_of_WINDS"},"data":[0,0,0,0,0,0,0,0,0,0,0,0,0,0,0,0,0,0,0,0,0,0,0,0,0,0,0,0,0,0,0,0,0,0,0,0,0,0,0,0,0,0,0,0,0,0,0,0,0,0,0,0,0,0,0,0,0,0,1.0744,1.0744,0,1.0762,1.0762,1.0763,1.0733,1.0732,1.0731,1.073,1.0751,1.0752,1.0754,0,0,0,0,0,0,0,0,0,0,0,0,0,1.0685,1.0686,1.0744,1.0744,1.0745,1.0762,1.0762,1.0763,1.0734,1.0732,1.0731,1.073,1.075,1.0752,1.0754,0,0,0,0,0,0,0,0,0,0,0,0,0,1.0708,1.0687,1.0744,1.0732,1.0731,1.0762,1.0762,1.0763,1.0734,1.0732,1.0731,1.0729,1.075,1.0752,1.0754,1.0798,0,0,1.0761,1.0762,0,0,0,0,0,0,0,0,1.0707,1.071,1.0734,1.0733,1.0732,1.0744,1.0749,1.0775,1.0734,1.0733,1.073,1.0729,1.075,1.0752,1.0759,1.0799,1.08,1.0761,1.0762,1.0763,1.0764,0,0,0,0,0,0,0,1.0705,1.0709,1.0751,1.0734,1.0733,1.0726,1.0728,1.0754,1.075,1.0733,1.0731,1.0733,1.0749,1.0757,1.0759,1.08,1.0761,1.0763,1.0764,1.0765,1.0875,1.0877,0,0,0,0,0,0,1.0705,1.0708,1.0751,1.0752,1.0715,1.0728,1.073,1.0742,1.0749,1.0749,1.0735,1.0732,1.0754,1.0756,1.0759,1.081,1.0763,1.0765,1.0767,1.0874,1.0875,1.0877,0,0,0,0,0,0,1.0704,1.0709,1.075,1.0729,1.0734,1.0731,1.0744,1.0743,1.075,1.075,1.075,1.0743,1.0752,1.0756,1.0788,1.0811,1.0766,1.0768,1.0872,1.0874,1.0876,1.0913,0,0,0,0,0,0,1.0702,1.0709,1.0725,1.073,1.0735,1.0778,1.0746,1.0744,1.0754,1.0751,1.0758,1.0758,1.0752,1.0785,1.079,1.0813,1.077,1.087,1.0873,1.0876,1.091,1.0916,1.0922,0,0,0,0,0,1.07,1.0736,1.0726,1.0732,1.0756,1.078,1.0783,1.0774,1.0756,1.0773,1.0772,1.0758,1.0807,1.0788,1.0794,1.0818,1.0868,1.0872,1.0875,1.0907,1.0915,1.0922,0,0,0,0,0,0,1.0735,1.0736,1.0726,1.0764,1.0772,1.0775,1.0796,1.0783,1.0797,1.0793,1.0783,1.0784,1.0818,1.0821,1.08,1.086,1.0835,1.084,1.0857,1.0864,1.087,1.0869,1.0772,0,0,0,0,0,1.0747,1.0766,1.0766,1.08,1.0804,1.0799,1.0809,1.0802,1.081,1.0813,1.0815,1.0824,1.0841,1.0853,1.0869,1.091,1.091,1.0929,1.0935,1.094,1.0944,1.0965,1.0972,1.0889,1.0889,1.0889,0,0,1.0773,1.0776,1.0789,1.0807,1.0812,1.0832,1.0802,1.0825,1.0839,1.0817,1.0846,1.0848,1.0857,1.0893,1.0909,1.0896,1.0967,1.0944,1.0948,1.095,1.0969,1.0977,1.0984,1.0891,1.0891,1.0891,0,0,1.0829,1.0834,1.0861,1.0866,1.0874,1.087,1.0877,1.0881,1.0881,1.091,1.0893,1.091,1.0941,1.0947,1.0954,1.101,1.0997,1.1016,1.1048,1.1068,1.1075,1.108,1.11,1.1107,1.102,1.102,1.1021,0,1.086,1.0889,1.0877,1.09,1.0909,1.0888,1.0915,1.0921,1.0934,1.094,1.0926,1.0962,1.0967,1.1003,1.1016,1.1023,1.103,1.1015,1.1074,1.108,1.1085,1.1104,1.1111,1.1023,1.1022,1.1022,1.1022,0,1.0926,1.0946,1.0967,1.0979,1.0989,1.1015,1.1007,1.1019,1.101,1.1008,1.1037,1.1041,1.1057,1.1065,1.1057,1.11,1.1092,1.1076,1.1051,1.1096,1.1112,1.1119,1.1026,1.1025,1.1024,1.1024,0,0,1.1006,1.1009,1.1018,1.1022,1.1027,1.1043,1.1067,1.1081,1.1091,1.11,1.112,1.1145,1.1129,1.1138,1.113,1.1148,1.119,1.113,1.113,1.114,1.1237,1.1248,1.1256,1.1181,1.1183,1.1184,1.1236,0,1.1062,1.1102,1.1092,1.1132,1.1149,1.1129,1.1149,1.1155,1.1153,1.1168,1.1165,1.1183,1.1162,1.1167,1.1183,1.1182,1.121,1.1178,1.1199,1.12,1.1197,1.1265,1.1278,1.1327,1.1242,1.1243,1.1244,0,1.1132,1.1142,1.1184,1.1185,1.1192,1.121,1.1222,1.1236,1.1242,1.1239,1.1247,1.1235,1.1258,1.1232,1.1263,1.1242,1.125,1.125,1.1252,1.1254,1.1225,1.1268,1.1343,1.135,1.1255,1.1254,1.1253,0,1.1185,1.1209,1.1237,1.1241,1.1244,1.1257,1.1258,1.1262,1.1271,1.1281,1.1286,1.1299,1.1307,1.1317,1.1309,1.1291,1.1341,1.1314,1.1339,1.1339,1.1351,1.135,1.1427,1.1356,1.1356,1.1356,1.1356,0,1.1248,1.1274,1.1261,1.1278,1.1306,1.1293,1.1322,1.1321,1.1324,1.134,1.1324,1.134,1.1328,1.1342,1.1336,1.1362,1.1366,1.1364,1.1362,1.1366,1.1366,1.1371,1.1367,1.1358,1.1358,1.1357,1.1357,0,1.1313,1.1305,1.1333,1.1332,1.1332,1.1353,1.1352,1.1368,1.1364,1.1384,1.1389,1.1383,1.1399,1.1391,1.1409,1.1404,1.1438,1.1432,1.1436,1.1434,1.1458,1.1456,1.1541,1.1551,1.1474,1.1475,1.1476,0,1.1353,1.1372,1.1373,1.1382,1.1384,1.14,1.1408,1.1396,1.1405,1.1411,1.1426,1.144,1.1451,1.1478,1.1475,1.1488,1.1481,1.151,1.1483,1.1486,1.1481,1.148,1.1481,1.1516,1.1517,1.1517,1.1518,0,1.1425,1.142,1.1432,1.1442,1.1452,1.146,1.1466,1.1475,1.1463,1.1474,1.149,1.1498,1.1514,1.1529,1.1539,1.1541,1.1528,1.1526,1.1532,1.1536,1.1537,1.1536,1.145,1.1524,1.1524,1.1523,1.1523,1.1523,1.1479,1.1494,1.1496,1.151,1.1513,1.1519,1.1533,1.1529,1.1542,1.1554,1.1546,1.1564,1.1568,1.158,1.1584,1.1598,1.1586,1.1596,1.1598,1.16,1.1603,1.1535,1.16,1.16,1.1599,1.1599,1.1599,0,1.1549,1.1549,1.1562,1.157,1.158,1.1565,1.1571,1.1581,1.1597,1.1601,1.1611,1.1628,1.1642,1.1639,1.1651,1.1663,1.1657,1.1666,1.1665,1.1665,1.1613,1.1606,1.1671,1.1671,1.1671,1.1671,1.1671,1.1671,1.1587,1.1612,1.1607,1.1633,1.1632,1.1649,1.1653,1.1658,1.1661,1.1681,1.1691,1.1689,1.169,1.1702,1.1713,1.1712,1.1717,1.1729,1.1725,1.1676,1.1669,1.1663,1.1656,1.173,1.173,1.1777,1.1777,1.1777]}]]